If you wish to contribute or participate in the discussions about articles you are invited to join SKYbrary as a registered user

 Actions

Agen-La Garenne Airport

From SKYbrary Wiki

LFBA
Airport
ICAO: LFBA – IATA: AGF
Summary
Name Agen-La Garenne Airport
Region Europe
Territory France FR.gif
Location Agen, Aquitaine
Serving Agen
Elevation 62.179 m
204 ft
204 ft62.179 m
Type medium airport
Coordinates 44° 10' 29.00" N, 0° 35' 26.00" E
Runways
Designator Length Width Surface ROPS
11/29 2165 m7,103.018 ft
30 m98.425 ft
ASP /


METAR
Observation LFBA 061330Z AUTO 25008KT 180V280 9999 BKN028/// BKN034/// BKN054/// ///TCU 22/16 Q1008
Station Agen
Date/Time 06 June 2020 13:30:00
Wind direction 250°
Wind speed 08 kts
Lowest cloud amount broken clouds
Temperature 22°C
Dew point 16°C
Humidity 68%
QNH 1008 hPa
Weather condition n/a

Maps

Terrain

Loading map...

Airport Layout

Loading map...


Accidents & Serious Incidents at or in vicinity of LFBA

None on SKYbrary